Location: Ceske Budejovice
(48.9830°N, 14.4670°E)
Time: 07:38:38
(UTC+02:00)

ISS - Pass Details

Date: 23 March 2019
Orbit: 408 x 410 km, 51.6° (Epoch: 26 April)

Event Time Altitude Azimuth Distance (km) Brightness Sun altitude
Rises 20:16:15 0° 242° (WSW) 2,329 0.5 -19.4°
Reaches altitude 10° 20:18:20 10° 240° (WSW) 1,470 -0.6 -19.7°
Enters shadow 20:21:07 58° 215° (SW) 482 -3.5 -20.1°
